Tracking 19283 objects as of 17-Nov-2018
HD Live streaming from Space Station
objects crossing your sky now

GALAXY 1R

Track GALAXY 1R now!
GALAXY 1R is classified as:


NORAD ID: 23016
Int'l Code: 1994-013A
Perigee: 36,065.0 km
Apogee: 36,114.3 km
Inclination: 9.6 °
Period: 1,451.2 minutes
Semi major axis: 42460 km
RCS: 8.3555 m2 (large)
Launch date: February 19, 1994
Source: United States (US)
Launch site: AIR FORCE EASTERN TEST RANGE (AFETR)

24 C-band; North America, Caribbean.
aabbcc
Your satellite tracking list
Your tracking list is empty




NASA's NSSDC Master Catalog

Two Line Element Set (TLE):
1 23016U 94013A   18320.02733894 -.00000252  00000-0  00000+0 0  9998
2 23016   9.5878  40.1355 0005803 245.6597 114.2134  0.99225505 89733
Source of the keplerian elements: AFSPC